Time,TemperatureF,DewpointF,PressureIn,WindDirection,WindDirectionDegrees,WindSpeedMPH,WindSpeedGustMPH,Humidity,HourlyPrecipIn,Conditions,Clouds,dailyrainin,SoftwareType,DateUTC
2013-05-24 00:01:00,50.0,37.1,30.04,ENE,68,1.1,1.6,61,0.00,,,0.00,WUHU216HW,2013-05-24 08:01:00,
2013-05-24 00:06:00,49.9,37.0,30.03,NE,45,0.2,1.6,61,0.00,,,0.00,WUHU216HW,2013-05-24 08:06:00,
2013-05-24 00:11:00,49.7,36.8,30.04,East,90,0.0,1.1,61,0.00,,,0.00,WUHU216HW,2013-05-24 08:11:00,
2013-05-24 00:16:00,49.5,36.6,30.03,NE,45,0.2,0.7,61,0.00,,,0.00,WUHU216HW,2013-05-24 08:16:00,
2013-05-24 00:21:00,49.3,36.5,30.03,NNE,23,0.2,0.7,61,0.00,,,0.00,WUHU216HW,2013-05-24 08:21:00,
2013-05-24 00:26:00,49.3,36.8,30.03,NNE,23,0.0,1.1,62,0.00,,,0.00,WUHU216HW,2013-05-24 08:26:00,
2013-05-24 00:31:00,49.1,36.7,30.03,NNE,23,0.2,1.1,62,0.00,,,0.00,WUHU216HW,2013-05-24 08:31:00,
2013-05-24 00:36:00,49.0,36.6,30.03,North,0,0.0,0.4,62,0.00,,,0.00,WUHU216HW,2013-05-24 08:36:00,
2013-05-24 00:41:00,48.8,36.4,30.03,North,0,0.0,0.2,62,0.00,,,0.00,WUHU216HW,2013-05-24 08:41:00,
2013-05-24 00:46:00,48.6,36.5,30.03,North,0,0.0,0.0,63,0.00,,,0.00,WUHU216HW,2013-05-24 08:46:00,
2013-05-24 00:51:00,48.4,36.4,30.03,NNE,23,1.1,1.1,63,0.00,,,0.00,WUHU216HW,2013-05-24 08:51:00,
2013-05-24 00:56:00,48.1,36.5,30.03,ENE,68,0.0,1.1,64,0.00,,,0.00,WUHU216HW,2013-05-24 08:56:00,
2013-05-24 01:01:00,47.9,36.3,30.03,ENE,68,0.0,0.4,64,0.00,,,0.00,WUHU216HW,2013-05-24 09:01:00,
2013-05-24 01:06:00,47.9,36.3,30.03,NNE,23,0.2,1.1,64,0.00,,,0.00,WUHU216HW,2013-05-24 09:06:00,
2013-05-24 01:11:00,47.9,36.6,30.03,North,0,0.0,1.1,65,0.00,,,0.00,WUHU216HW,2013-05-24 09:11:00,
2013-05-24 01:16:00,47.9,36.6,30.03,North,0,0.0,0.7,65,0.00,,,0.00,WUHU216HW,2013-05-24 09:16:00,
2013-05-24 01:21:00,47.7,36.5,30.03,North,0,0.0,0.0,65,0.00,,,0.00,WUHU216HW,2013-05-24 09:21:00,
2013-05-24 01:26:00,47.5,36.7,30.03,North,0,0.0,1.1,66,0.00,,,0.00,WUHU216HW,2013-05-24 09:26:00,
2013-05-24 01:31:00,47.3,36.6,30.03,NNE,23,1.3,1.3,66,0.00,,,0.00,WUHU216HW,2013-05-24 09:31:00,
2013-05-24 01:36:00,47.2,36.7,30.03,ENE,68,1.1,1.3,67,0.00,,,0.00,WUHU216HW,2013-05-24 09:36:00,
2013-05-24 01:41:00,47.2,36.7,30.03,North,0,0.0,1.1,67,0.00,,,0.00,WUHU216HW,2013-05-24 09:41:00,
2013-05-24 01:46:00,47.0,36.5,30.03,ENE,68,0.2,0.9,67,0.00,,,0.00,WUHU216HW,2013-05-24 09:46:00,
2013-05-24 01:51:00,46.8,36.8,30.03,NNE,23,0.0,1.1,68,0.00,,,0.00,WUHU216HW,2013-05-24 09:51:00,
2013-05-24 01:56:00,46.8,36.8,30.03,North,0,0.0,1.1,68,0.00,,,0.00,WUHU216HW,2013-05-24 09:56:00,
2013-05-24 02:01:00,46.6,36.6,30.03,ENE,68,0.2,0.4,68,0.00,,,0.00,WUHU216HW,2013-05-24 10:01:00,
2013-05-24 02:06:00,46.4,36.5,30.03,NE,45,0.0,0.9,68,0.00,,,0.00,WUHU216HW,2013-05-24 10:06:00,
2013-05-24 02:11:00,46.4,36.5,30.03,ESE,113,1.3,1.8,68,0.00,,,0.00,WUHU216HW,2013-05-24 10:11:00,
2013-05-24 02:16:00,46.3,36.3,30.03,NE,45,0.7,2.0,68,0.00,,,0.00,WUHU216HW,2013-05-24 10:16:00,
2013-05-24 02:21:00,46.1,36.1,30.03,ENE,68,0.4,2.0,68,0.00,,,0.00,WUHU216HW,2013-05-24 10:21:00,
2013-05-24 02:26:00,45.9,35.9,30.03,NE,45,2.0,2.0,68,0.00,,,0.00,WUHU216HW,2013-05-24 10:26:00,
2013-05-24 02:31:00,45.7,35.7,30.03,NE,45,0.4,2.0,68,0.00,,,0.00,WUHU216HW,2013-05-24 10:31:00,
2013-05-24 02:36:00,45.7,35.7,30.03,NE,45,0.4,2.2,68,0.00,,,0.00,WUHU216HW,2013-05-24 10:36:00,
2013-05-24 02:41:00,45.5,35.6,30.03,NE,45,2.0,2.2,68,0.00,,,0.00,WUHU216HW,2013-05-24 10:41:00,
2013-05-24 02:46:00,45.5,36.0,30.03,ENE,68,0.9,2.0,69,0.00,,,0.00,WUHU216HW,2013-05-24 10:46:00,
2013-05-24 02:51:00,45.4,35.8,30.03,ENE,68,0.4,1.6,69,0.00,,,0.00,WUHU216HW,2013-05-24 10:51:00,
2013-05-24 02:56:00,45.2,35.7,30.03,ENE,68,2.0,3.6,69,0.00,,,0.00,WUHU216HW,2013-05-24 10:56:00,
2013-05-24 03:01:00,45.0,35.5,30.03,ENE,68,0.0,3.6,69,0.00,,,0.00,WUHU216HW,2013-05-24 11:01:00,
2013-05-24 03:06:00,45.0,35.5,30.03,NE,45,0.7,1.3,69,0.00,,,0.00,WUHU216HW,2013-05-24 11:06:00,
2013-05-24 03:11:00,45.0,35.5,30.03,North,0,1.3,1.3,69,0.00,,,0.00,WUHU216HW,2013-05-24 11:11:00,
2013-05-24 03:16:00,44.8,35.3,30.03,NE,45,1.1,1.3,69,0.00,,,0.00,WUHU216HW,2013-05-24 11:16:00,
2013-05-24 03:21:00,44.6,35.5,30.03,ENE,68,2.0,3.4,70,0.00,,,0.00,WUHU216HW,2013-05-24 11:21:00,
2013-05-24 03:26:00,44.6,35.5,30.03,SE,135,1.8,3.4,70,0.00,,,0.00,WUHU216HW,2013-05-24 11:26:00,
2013-05-24 03:31:00,44.5,35.3,30.03,East,90,1.3,2.9,70,0.00,,,0.00,WUHU216HW,2013-05-24 11:31:00,
2013-05-24 03:36:00,44.5,35.3,30.03,NE,45,1.1,2.2,70,0.00,,,0.00,WUHU216HW,2013-05-24 11:36:00,
2013-05-24 03:41:00,44.5,35.7,30.03,NE,45,2.2,3.4,71,0.00,,,0.00,WUHU216HW,2013-05-24 11:41:00,
2013-05-24 03:46:00,44.5,35.7,30.02,ENE,68,0.2,3.4,71,0.00,,,0.00,WUHU216HW,2013-05-24 11:46:00,
2013-05-24 03:51:00,44.5,35.7,30.03,ENE,68,0.9,1.6,71,0.00,,,0.00,WUHU216HW,2013-05-24 11:51:00,
2013-05-24 03:56:00,44.6,36.2,30.02,ENE,68,1.6,1.6,72,0.00,,,0.00,WUHU216HW,2013-05-24 11:56:00,
2013-05-24 04:01:00,44.6,36.2,30.02,NNE,23,3.4,3.4,72,0.00,,,0.00,WUHU216HW,2013-05-24 12:01:00,
2013-05-24 04:06:00,44.6,36.2,30.02,NE,45,0.7,3.4,72,0.00,,,0.00,WUHU216HW,2013-05-24 12:06:00,
2013-05-24 04:11:00,44.6,36.2,30.02,ENE,68,0.9,2.9,72,0.00,,,0.00,WUHU216HW,2013-05-24 12:11:00,
2013-05-24 04:16:00,44.8,36.0,30.02,ENE,68,2.0,2.0,71,0.00,,,0.00,WUHU216HW,2013-05-24 12:16:00,
2013-05-24 04:21:00,44.8,36.4,30.01,NE,45,1.3,2.0,72,0.00,,,0.00,WUHU216HW,2013-05-24 12:21:00,
2013-05-24 04:26:00,44.8,36.4,30.01,NE,45,1.1,1.8,72,0.00,,,0.00,WUHU216HW,2013-05-24 12:26:00,
2013-05-24 04:31:00,44.8,36.4,30.01,NNE,23,0.0,2.5,72,0.00,,,0.00,WUHU216HW,2013-05-24 12:31:00,
2013-05-24 04:36:00,44.8,36.4,30.01,North,0,1.3,2.5,72,0.00,,,0.00,WUHU216HW,2013-05-24 12:36:00,
2013-05-24 04:41:00,44.8,36.4,30.01,North,0,0.7,2.5,72,0.00,,,0.00,WUHU216HW,2013-05-24 12:41:00,
2013-05-24 04:46:00,45.0,36.6,30.01,NE,45,0.0,1.8,72,0.00,,,0.00,WUHU216HW,2013-05-24 12:46:00,
2013-05-24 04:51:00,44.8,36.4,30.01,ENE,68,0.0,1.8,72,0.00,,,0.00,WUHU216HW,2013-05-24 12:51:00,
2013-05-24 04:56:00,44.8,36.4,30.01,ENE,68,1.6,1.6,72,0.00,,,0.00,WUHU216HW,2013-05-24 12:56:00,
2013-05-24 05:01:00,44.8,36.4,30.01,East,90,0.0,1.6,72,0.00,,,0.00,WUHU216HW,2013-05-24 13:01:00,
2013-05-24 05:06:00,44.8,36.4,30.01,NE,45,1.1,2.2,72,0.00,,,0.00,WUHU216HW,2013-05-24 13:06:00,
2013-05-24 05:11:00,44.8,36.4,30.01,ENE,68,0.4,2.2,72,0.00,,,0.00,WUHU216HW,2013-05-24 13:11:00,
2013-05-24 05:16:00,44.8,36.4,30.01,ENE,68,0.7,1.8,72,0.00,,,0.00,WUHU216HW,2013-05-24 13:16:00,
2013-05-24 05:21:00,44.8,36.4,30.01,ENE,68,1.1,1.1,72,0.00,,,0.00,WUHU216HW,2013-05-24 13:21:00,
2013-05-24 05:26:00,44.8,36.4,30.01,ESE,113,0.9,1.1,72,0.00,,,0.00,WUHU216HW,2013-05-24 13:26:00,
2013-05-24 05:31:00,44.8,36.4,30.01,ENE,68,0.9,0.9,72,0.00,,,0.00,WUHU216HW,2013-05-24 13:31:00,
2013-05-24 05:36:00,45.0,36.6,30.01,East,90,0.2,0.9,72,0.00,,,0.00,WUHU216HW,2013-05-24 13:36:00,
2013-05-24 05:41:00,45.0,36.6,30.01,ENE,68,0.0,0.4,72,0.00,,,0.00,WUHU216HW,2013-05-24 13:41:00,
2013-05-24 05:46:00,45.0,36.6,30.01,East,90,0.4,0.9,72,0.00,,,0.00,WUHU216HW,2013-05-24 13:46:00,
2013-05-24 05:51:00,45.0,36.6,30.01,NE,45,3.1,3.1,72,0.00,,,0.00,WUHU216HW,2013-05-24 13:51:00,
2013-05-24 05:56:00,45.2,36.7,30.01,East,90,0.0,3.1,72,0.00,,,0.00,WUHU216HW,2013-05-24 13:56:00,
2013-05-24 06:01:00,45.2,36.7,30.01,East,90,0.4,1.8,72,0.00,,,0.00,WUHU216HW,2013-05-24 14:01:00,
2013-05-24 06:06:00,45.2,36.7,30.01,East,90,0.0,1.8,72,0.00,,,0.00,WUHU216HW,2013-05-24 14:06:00,
2013-05-24 06:11:00,45.2,36.7,30.01,East,90,0.0,0.9,72,0.00,,,0.00,WUHU216HW,2013-05-24 14:11:00,
2013-05-24 06:16:00,45.0,36.6,30.01,East,90,0.0,0.0,72,0.00,,,0.00,WUHU216HW,2013-05-24 14:16:00,
2013-05-24 06:21:00,45.0,36.6,30.01,East,90,0.0,0.0,72,0.00,,,0.00,WUHU216HW,2013-05-24 14:21:00,
2013-05-24 06:26:00,45.0,36.6,30.01,East,90,0.0,0.0,72,0.00,,,0.00,WUHU216HW,2013-05-24 14:26:00,
2013-05-24 06:31:00,44.8,36.4,30.01,SE,135,0.0,0.0,72,0.00,,,0.00,WUHU216HW,2013-05-24 14:31:00,
2013-05-24 06:36:00,44.8,36.4,30.01,SE,135,0.0,0.0,72,0.00,,,0.00,WUHU216HW,2013-05-24 14:36:00,
2013-05-24 06:41:00,44.8,36.4,30.01,South,180,0.0,0.0,72,0.00,,,0.00,WUHU216HW,2013-05-24 14:41:00,
2013-05-24 06:46:00,44.6,36.2,30.01,South,180,0.0,0.0,72,0.00,,,0.00,WUHU216HW,2013-05-24 14:46:00,
2013-05-24 06:51:00,44.6,36.2,30.01,SSE,158,0.0,0.0,72,0.00,,,0.00,WUHU216HW,2013-05-24 14:51:00,
2013-05-24 06:56:00,44.6,36.2,30.01,SSE,158,0.0,0.0,72,0.00,,,0.00,WUHU216HW,2013-05-24 14:56:00,
2013-05-24 07:01:00,44.6,36.2,30.01,SE,135,0.0,0.0,72,0.00,,,0.00,WUHU216HW,2013-05-24 15:01:00,
2013-05-24 07:06:00,44.6,36.2,30.01,SSE,158,1.8,1.8,72,0.00,,,0.00,WUHU216HW,2013-05-24 15:06:00,
2013-05-24 07:11:00,44.8,36.4,30.01,SE,135,0.4,1.8,72,0.00,,,0.00,WUHU216HW,2013-05-24 15:11:00,
2013-05-24 07:16:00,44.8,36.4,30.01,SE,135,0.0,1.8,72,0.00,,,0.00,WUHU216HW,2013-05-24 15:16:00,
2013-05-24 07:21:00,44.8,36.4,30.01,SE,135,1.8,1.8,72,0.00,,,0.00,WUHU216HW,2013-05-24 15:21:00,
2013-05-24 07:26:00,45.0,36.6,30.01,SSE,158,0.4,1.8,72,0.00,,,0.00,WUHU216HW,2013-05-24 15:26:00,
2013-05-24 07:31:00,45.0,36.6,30.01,SE,135,0.4,1.8,72,0.00,,,0.00,WUHU216HW,2013-05-24 15:31:00,
2013-05-24 07:36:00,45.0,36.6,30.01,SE,135,0.0,2.2,72,0.00,,,0.00,WUHU216HW,2013-05-24 15:36:00,
2013-05-24 07:41:00,45.2,36.7,30.01,SSE,158,2.2,2.2,72,0.00,,,0.00,WUHU216HW,2013-05-24 15:41:00,
2013-05-24 07:46:00,45.4,36.9,30.01,SE,135,0.0,2.7,72,0.00,,,0.00,WUHU216HW,2013-05-24 15:46:00,
2013-05-24 07:51:00,45.5,37.4,30.01,SE,135,2.0,2.7,73,0.00,,,0.00,WUHU216HW,2013-05-24 15:51:00,
2013-05-24 07:56:00,45.5,37.1,30.01,ESE,113,1.3,2.5,72,0.00,,,0.00,WUHU216HW,2013-05-24 15:56:00,
2013-05-24 08:01:00,45.7,37.3,30.01,SE,135,1.8,2.9,72,0.00,,,0.00,WUHU216HW,2013-05-24 16:01:00,
2013-05-24 08:06:00,45.7,37.3,30.01,SSE,158,1.1,2.9,72,0.00,,,0.00,WUHU216HW,2013-05-24 16:06:00,
2013-05-24 08:11:00,46.1,37.6,30.01,East,90,0.0,2.2,72,0.00,,,0.00,WUHU216HW,2013-05-24 16:11:00,
2013-05-24 08:16:00,46.1,37.6,30.01,SSW,203,1.1,1.8,72,0.00,,,0.00,WUHU216HW,2013-05-24 16:16:00,
2013-05-24 08:21:00,46.4,38.0,30.01,ESE,113,0.2,1.8,72,0.00,,,0.00,WUHU216HW,2013-05-24 16:21:00,
2013-05-24 08:26:00,46.6,38.1,30.01,SE,135,0.0,1.8,72,0.00,,,0.00,WUHU216HW,2013-05-24 16:26:00,
2013-05-24 08:31:00,46.8,38.3,30.00,SSE,158,1.3,1.3,72,0.00,,,0.00,WUHU216HW,2013-05-24 16:31:00,
2013-05-24 08:36:00,47.2,38.6,30.00,SSE,158,0.2,1.6,72,0.00,,,0.00,WUHU216HW,2013-05-24 16:36:00,
2013-05-24 08:41:00,47.7,38.7,30.00,SSE,158,0.2,1.6,71,0.00,,,0.00,WUHU216HW,2013-05-24 16:41:00,
2013-05-24 08:46:00,48.1,38.7,30.00,ESE,113,0.0,2.0,70,0.00,,,0.00,WUHU216HW,2013-05-24 16:46:00,
2013-05-24 08:51:00,48.2,38.5,30.00,WNW,293,0.0,2.0,69,0.00,,,0.00,WUHU216HW,2013-05-24 16:51:00,
2013-05-24 08:56:00,48.6,38.9,30.00,SE,135,0.4,2.7,69,0.00,,,0.00,WUHU216HW,2013-05-24 16:56:00,
2013-05-24 09:01:00,48.8,39.1,30.00,SE,135,0.0,2.7,69,0.00,,,0.00,WUHU216HW,2013-05-24 17:01:00,
2013-05-24 09:06:00,49.1,39.8,30.00,SE,135,3.1,3.1,70,0.00,,,0.00,WUHU216HW,2013-05-24 17:06:00,
2013-05-24 09:11:00,49.5,39.8,30.00,East,90,1.3,3.1,69,0.00,,,0.00,WUHU216HW,2013-05-24 17:11:00,
2013-05-24 09:16:00,49.7,39.5,30.00,SE,135,0.4,2.7,68,0.00,,,0.00,WUHU216HW,2013-05-24 17:16:00,
2013-05-24 09:21:00,50.0,39.9,30.00,ENE,68,0.9,2.7,68,0.00,,,0.00,WUHU216HW,2013-05-24 17:21:00,
2013-05-24 09:26:00,50.6,40.4,30.00,SE,135,2.5,2.5,68,0.00,,,0.00,WUHU216HW,2013-05-24 17:26:00,
2013-05-24 09:31:00,50.8,40.6,30.00,ESE,113,2.9,2.9,68,0.00,,,0.00,WUHU216HW,2013-05-24 17:31:00,
2013-05-24 09:36:00,51.1,41.0,29.99,SE,135,1.3,3.1,68,0.00,,,0.00,WUHU216HW,2013-05-24 17:36:00,
2013-05-24 09:41:00,51.5,41.3,29.99,SE,135,4.3,4.3,68,0.00,,,0.00,WUHU216HW,2013-05-24 17:41:00,
2013-05-24 09:46:00,51.8,41.7,29.99,SE,135,3.1,4.3,68,0.00,,,0.00,WUHU216HW,2013-05-24 17:46:00,
2013-05-24 09:51:00,52.2,41.6,29.99,East,90,1.1,3.1,67,0.00,,,0.00,WUHU216HW,2013-05-24 17:51:00,
2013-05-24 09:56:00,52.4,41.3,29.99,SSE,158,3.1,3.1,66,0.00,,,0.00,WUHU216HW,2013-05-24 17:56:00,
2013-05-24 10:01:00,52.6,41.5,29.99,South,180,0.2,4.5,66,0.00,,,0.00,WUHU216HW,2013-05-24 18:01:00,
2013-05-24 10:06:00,52.9,41.9,29.99,SSE,158,0.4,4.5,66,0.00,,,0.00,WUHU216HW,2013-05-24 18:06:00,
2013-05-24 10:11:00,53.3,41.8,29.99,ESE,113,2.5,4.3,65,0.00,,,0.00,WUHU216HW,2013-05-24 18:11:00,
2013-05-24 10:16:00,53.6,42.1,29.99,SSE,158,3.1,4.7,65,0.00,,,0.00,WUHU216HW,2013-05-24 18:16:00,
2013-05-24 10:21:00,54.0,42.0,29.99,SSE,158,0.0,4.7,64,0.00,,,0.00,WUHU216HW,2013-05-24 18:21:00,
2013-05-24 10:26:00,54.4,42.4,29.98,SSE,158,1.1,4.0,64,0.00,,,0.00,WUHU216HW,2013-05-24 18:26:00,
2013-05-24 10:31:00,54.7,42.3,29.99,NNW,338,0.7,4.0,63,0.00,,,0.00,WUHU216HW,2013-05-24 18:31:00,
2013-05-24 10:36:00,54.9,42.1,29.98,ESE,113,1.1,2.5,62,0.00,,,0.00,WUHU216HW,2013-05-24 18:36:00,
2013-05-24 10:41:00,55.3,42.4,29.98,SSE,158,4.5,4.5,62,0.00,,,0.00,WUHU216HW,2013-05-24 18:41:00,
2013-05-24 10:46:00,55.6,42.8,29.98,SE,135,3.4,4.5,62,0.00,,,0.00,WUHU216HW,2013-05-24 18:46:00,
2013-05-24 10:51:00,56.0,43.1,29.98,SSE,158,3.8,4.9,62,0.00,,,0.00,WUHU216HW,2013-05-24 18:51:00,
2013-05-24 10:56:00,56.3,43.0,29.98,SE,135,2.5,4.9,61,0.00,,,0.00,WUHU216HW,2013-05-24 18:56:00,
2013-05-24 11:01:00,56.7,43.0,29.98,NE,45,3.8,5.4,60,0.00,,,0.00,WUHU216HW,2013-05-24 19:01:00,
2013-05-24 11:06:00,56.9,42.8,29.98,SSW,203,2.2,5.4,59,0.00,,,0.00,WUHU216HW,2013-05-24 19:06:00,
2013-05-24 11:11:00,57.2,43.1,29.98,SE,135,5.4,5.4,59,0.00,,,0.00,WUHU216HW,2013-05-24 19:11:00,
2013-05-24 11:16:00,57.4,42.8,29.98,East,90,2.0,5.4,58,0.00,,,0.00,WUHU216HW,2013-05-24 19:16:00,
2013-05-24 11:21:00,57.8,43.1,29.98,ESE,113,3.4,4.7,58,0.00,,,0.00,WUHU216HW,2013-05-24 19:21:00,
2013-05-24 11:26:00,58.0,42.9,29.97,SSW,203,4.7,4.7,57,0.00,,,0.00,WUHU216HW,2013-05-24 19:26:00,
2013-05-24 11:31:00,58.3,43.1,29.97,SE,135,1.8,4.7,57,0.00,,,0.00,WUHU216HW,2013-05-24 19:31:00,
2013-05-24 11:36:00,58.7,43.0,29.97,WNW,293,0.7,2.2,56,0.00,,,0.00,WUHU216HW,2013-05-24 19:36:00,
2013-05-24 11:41:00,58.9,42.7,29.97,ESE,113,3.8,5.8,55,0.00,,,0.00,WUHU216HW,2013-05-24 19:41:00,
2013-05-24 11:46:00,59.2,43.0,29.97,East,90,1.8,5.8,55,0.00,,,0.00,WUHU216HW,2013-05-24 19:46:00,
2013-05-24 11:51:00,59.6,43.4,29.97,SSE,158,3.8,3.8,55,0.00,,,0.00,WUHU216HW,2013-05-24 19:51:00,
2013-05-24 11:56:00,59.9,43.7,29.97,SE,135,2.5,4.3,55,0.00,,,0.00,WUHU216HW,2013-05-24 19:56:00,
2013-05-24 12:01:00,60.1,43.4,29.97,SSE,158,3.8,4.7,54,0.00,,,0.00,WUHU216HW,2013-05-24 20:01:00,
2013-05-24 12:06:00,60.5,43.8,29.97,SE,135,4.5,4.7,54,0.00,,,0.00,WUHU216HW,2013-05-24 20:06:00,
2013-05-24 12:11:00,60.8,43.1,29.96,SSE,158,3.1,4.7,52,0.00,,,0.00,WUHU216HW,2013-05-24 20:11:00,
2013-05-24 12:16:00,60.8,42.6,29.97,SSE,158,5.8,6.0,51,0.00,,,0.00,WUHU216HW,2013-05-24 20:16:00,
2013-05-24 12:21:00,61.2,42.9,29.97,SSE,158,3.4,6.0,51,0.00,,,0.00,WUHU216HW,2013-05-24 20:21:00,
2013-05-24 12:26:00,61.9,44.1,29.96,East,90,1.1,4.0,52,0.00,,,0.00,WUHU216HW,2013-05-24 20:26:00,
2013-05-24 12:31:00,62.3,43.4,29.96,SE,135,3.4,4.0,50,0.00,,,0.00,WUHU216HW,2013-05-24 20:31:00,
2013-05-24 12:36:00,62.6,43.7,29.96,SE,135,1.1,3.4,50,0.00,,,0.00,WUHU216HW,2013-05-24 20:36:00,
2013-05-24 12:41:00,63.2,43.1,29.96,SSE,158,5.1,6.5,48,0.00,,,0.00,WUHU216HW,2013-05-24 20:41:00,
2013-05-24 12:46:00,63.7,43.6,29.96,ESE,113,0.9,6.5,48,0.00,,,0.00,WUHU216HW,2013-05-24 20:46:00,
2013-05-24 12:51:00,64.1,43.3,29.96,SE,135,2.5,5.6,47,0.00,,,0.00,WUHU216HW,2013-05-24 20:51:00,
2013-05-24 12:56:00,64.4,43.7,29.96,SSE,158,0.9,4.5,47,0.00,,,0.00,WUHU216HW,2013-05-24 20:56:00,
2013-05-24 13:01:00,65.2,43.7,29.95,SW,225,0.7,3.1,46,0.01,,,0.01,WUHU216HW,2013-05-24 21:01:00,
2013-05-24 13:06:00,65.9,43.8,29.95,East,90,2.9,4.0,45,0.01,,,0.01,WUHU216HW,2013-05-24 21:06:00,
2013-05-24 13:11:00,66.6,43.3,29.95,SSE,158,4.7,5.8,43,0.01,,,0.01,WUHU216HW,2013-05-24 21:11:00,
2013-05-24 13:16:00,67.1,43.8,29.95,ESE,113,4.0,5.8,43,0.01,,,0.01,WUHU216HW,2013-05-24 21:16:00,
2013-05-24 13:21:00,67.7,43.8,29.95,SE,135,0.4,4.9,42,0.01,,,0.01,WUHU216HW,2013-05-24 21:21:00,
2013-05-24 13:26:00,68.2,43.6,29.95,SE,135,6.3,6.3,41,0.01,,,0.01,WUHU216HW,2013-05-24 21:26:00,
2013-05-24 13:31:00,68.8,43.5,29.95,East,90,1.6,6.3,40,0.01,,,0.01,WUHU216HW,2013-05-24 21:31:00,
2013-05-24 13:36:00,69.3,44.0,29.94,SE,135,4.0,4.3,40,0.01,,,0.01,WUHU216HW,2013-05-24 21:36:00,
2013-05-24 13:41:00,69.8,43.8,29.95,East,90,5.1,5.1,39,0.01,,,0.01,WUHU216HW,2013-05-24 21:41:00,
2013-05-24 13:46:00,70.2,44.0,29.94,SSW,203,1.8,6.3,39,0.01,,,0.01,WUHU216HW,2013-05-24 21:46:00,
2013-05-24 13:51:00,70.7,44.6,29.95,WSW,248,0.4,6.3,39,0.01,,,0.01,WUHU216HW,2013-05-24 21:51:00,
2013-05-24 13:56:00,71.3,43.6,29.94,WSW,248,0.2,2.5,37,0.00,,,0.01,WUHU216HW,2013-05-24 21:56:00,
2013-05-24 14:01:00,72.4,44.5,29.94,SSW,203,2.5,3.1,37,0.00,,,0.01,WUHU216HW,2013-05-24 22:01:00,
2013-05-24 14:06:00,72.0,41.9,29.94,SSE,158,2.0,3.1,34,0.00,,,0.01,WUHU216HW,2013-05-24 22:06:00,
2013-05-24 14:11:00,71.6,41.7,29.93,South,180,2.2,2.9,34,0.00,,,0.01,WUHU216HW,2013-05-24 22:11:00,
2013-05-24 14:16:00,71.5,43.8,29.93,North,0,0.7,2.9,37,0.00,,,0.01,WUHU216HW,2013-05-24 22:16:00,
2013-05-24 14:21:00,72.5,42.4,29.93,SE,135,0.0,2.2,34,0.00,,,0.01,WUHU216HW,2013-05-24 22:21:00,
2013-05-24 14:26:00,73.1,43.7,29.93,East,90,1.8,2.2,35,0.00,,,0.01,WUHU216HW,2013-05-24 22:26:00,
2013-05-24 14:31:00,74.2,46.1,29.93,NNW,338,0.0,1.8,37,0.00,,,0.01,WUHU216HW,2013-05-24 22:31:00,
2013-05-24 14:36:00,75.4,44.2,29.93,South,180,4.5,4.5,33,0.00,,,0.01,WUHU216HW,2013-05-24 22:36:00,
2013-05-24 14:42:00,75.2,43.3,29.93,East,90,2.0,4.5,32,0.00,,,0.01,WUHU216HW,2013-05-24 22:42:00,
2013-05-24 14:47:00,74.5,42.7,29.93,NE,45,1.6,3.6,32,0.00,,,0.01,WUHU216HW,2013-05-24 22:47:00,
2013-05-24 14:52:00,75.4,44.9,29.93,ENE,68,3.4,3.4,34,0.00,,,0.01,WUHU216HW,2013-05-24 22:52:00,
2013-05-24 14:57:00,76.7,45.4,29.93,North,0,1.1,3.4,33,0.00,,,0.01,WUHU216HW,2013-05-24 22:57:00,
2013-05-24 15:02:00,77.0,44.1,29.93,SSW,203,0.7,3.1,31,0.00,,,0.01,WUHU216HW,2013-05-24 23:02:00,
2013-05-24 15:07:00,76.7,44.6,29.93,WNW,293,0.7,2.9,32,0.00,,,0.01,WUHU216HW,2013-05-24 23:07:00,
2013-05-24 15:12:00,77.6,43.8,29.93,ESE,113,2.9,2.9,30,0.00,,,0.01,WUHU216HW,2013-05-24 23:12:00,
2013-05-24 15:17:00,77.4,43.7,29.93,East,90,0.4,4.5,30,0.00,,,0.01,WUHU216HW,2013-05-24 23:17:00,
2013-05-24 15:22:00,77.8,44.7,29.92,NE,45,2.9,4.5,31,0.00,,,0.01,WUHU216HW,2013-05-24 23:22:00,
2013-05-24 15:27:00,78.1,44.3,29.92,North,0,1.1,3.8,30,0.00,,,0.01,WUHU216HW,2013-05-24 23:27:00,
2013-05-24 15:32:00,79.7,45.6,29.92,WNW,293,0.2,3.8,30,0.00,,,0.01,WUHU216HW,2013-05-24 23:32:00,
2013-05-24 15:37:00,80.8,45.5,29.92,ESE,113,0.0,2.2,29,0.00,,,0.01,WUHU216HW,2013-05-24 23:37:00,
2013-05-24 15:42:00,81.5,45.1,29.92,ESE,113,0.4,2.0,28,0.00,,,0.01,WUHU216HW,2013-05-24 23:42:00,
2013-05-24 15:47:00,81.0,44.6,29.92,NW,315,0.2,2.0,28,0.00,,,0.01,WUHU216HW,2013-05-24 23:47:00,
2013-05-24 15:52:00,81.0,44.6,29.92,NW,315,2.0,2.0,28,0.00,,,0.01,WUHU216HW,2013-05-24 23:52:00,
2013-05-24 15:57:00,82.1,45.6,29.92,ESE,113,4.9,4.9,28,0.00,,,0.01,WUHU216HW,2013-05-24 23:57:00,
2013-05-24 16:02:00,82.4,43.8,29.92,SW,225,0.2,4.9,26,0.00,,,0.01,WUHU216HW,2013-05-25 00:02:00,
2013-05-24 16:07:00,81.0,42.6,29.92,NW,315,0.2,3.1,26,0.00,,,0.01,WUHU216HW,2013-05-25 00:07:00,
2013-05-24 16:12:00,81.0,44.6,29.92,East,90,2.7,6.5,28,0.00,,,0.01,WUHU216HW,2013-05-25 00:12:00,
2013-05-24 16:17:00,81.0,41.5,29.92,SE,135,4.9,6.5,25,0.00,,,0.01,WUHU216HW,2013-05-25 00:17:00,
2013-05-24 16:22:00,80.6,41.2,29.92,South,180,2.7,6.3,25,0.00,,,0.01,WUHU216HW,2013-05-25 00:22:00,
2013-05-24 16:27:00,80.6,41.2,29.92,SE,135,5.4,6.5,25,0.00,,,0.01,WUHU216HW,2013-05-25 00:27:00,
2013-05-24 16:32:00,81.0,43.6,29.91,SSW,203,0.0,6.5,27,0.00,,,0.01,WUHU216HW,2013-05-25 00:32:00,
2013-05-24 16:37:00,81.9,43.3,29.92,SSE,158,2.7,3.1,26,0.00,,,0.01,WUHU216HW,2013-05-25 00:37:00,
2013-05-24 16:42:00,81.9,42.2,29.91,SSE,158,9.4,9.4,25,0.00,,,0.01,WUHU216HW,2013-05-25 00:42:00,
2013-05-24 16:47:00,80.8,42.4,29.91,SE,135,4.7,9.4,26,0.00,,,0.01,WUHU216HW,2013-05-25 00:47:00,
2013-05-24 16:52:00,81.0,42.6,29.91,East,90,4.7,6.3,26,0.00,,,0.01,WUHU216HW,2013-05-25 00:52:00,
2013-05-24 16:57:00,81.5,43.0,29.91,SSE,158,3.6,6.9,26,0.00,,,0.01,WUHU216HW,2013-05-25 00:57:00,
2013-05-24 17:02:00,81.7,41.0,29.91,SSE,158,2.0,6.9,24,0.00,,,0.01,WUHU216HW,2013-05-25 01:02:00,
2013-05-24 17:07:00,81.0,40.5,29.91,SE,135,1.8,6.0,24,0.00,,,0.01,WUHU216HW,2013-05-25 01:07:00,
2013-05-24 17:12:00,80.3,40.9,29.91,SE,135,0.7,5.1,25,0.00,,,0.01,WUHU216HW,2013-05-25 01:12:00,
2013-05-24 17:17:00,80.6,41.2,29.91,SE,135,5.4,5.4,25,0.00,,,0.01,WUHU216HW,2013-05-25 01:17:00,
2013-05-24 17:22:00,80.8,41.4,29.91,SSE,158,3.1,5.4,25,0.00,,,0.01,WUHU216HW,2013-05-25 01:22:00,
2013-05-24 17:27:00,81.0,41.5,29.91,SSE,158,2.5,5.4,25,0.00,,,0.01,WUHU216HW,2013-05-25 01:27:00,
2013-05-24 17:32:00,81.0,40.5,29.91,ESE,113,4.0,5.4,24,0.00,,,0.01,WUHU216HW,2013-05-25 01:32:00,
2013-05-24 17:37:00,81.5,40.9,29.91,ESE,113,4.7,8.1,24,0.00,,,0.01,WUHU216HW,2013-05-25 01:37:00,
2013-05-24 17:42:00,81.5,40.9,29.91,ESE,113,6.0,8.1,24,0.00,,,0.01,WUHU216HW,2013-05-25 01:42:00,
2013-05-24 17:47:00,81.7,41.0,29.91,SSE,158,2.9,6.3,24,0.00,,,0.01,WUHU216HW,2013-05-25 01:47:00,
2013-05-24 17:52:00,82.4,41.6,29.91,ESE,113,7.8,7.8,24,0.00,,,0.01,WUHU216HW,2013-05-25 01:52:00,
2013-05-24 17:57:00,82.1,40.3,29.91,SE,135,3.8,7.8,23,0.00,,,0.01,WUHU216HW,2013-05-25 01:57:00,
2013-05-24 18:02:00,81.0,40.5,29.91,NE,45,3.6,6.3,24,0.00,,,0.01,WUHU216HW,2013-05-25 02:02:00,
2013-05-24 18:07:00,81.0,39.4,29.91,NE,45,6.9,6.9,23,0.00,,,0.01,WUHU216HW,2013-05-25 02:07:00,
2013-05-24 18:12:00,81.0,39.4,29.91,East,90,6.7,6.9,23,0.00,,,0.01,WUHU216HW,2013-05-25 02:12:00,
2013-05-24 18:17:00,81.2,39.6,29.91,ESE,113,5.4,6.9,23,0.00,,,0.01,WUHU216HW,2013-05-25 02:17:00,
2013-05-24 18:22:00,81.4,40.8,29.91,NE,45,3.1,6.9,24,0.00,,,0.01,WUHU216HW,2013-05-25 02:22:00,
2013-05-24 18:27:00,81.4,41.8,29.90,East,90,5.4,6.3,25,0.00,,,0.01,WUHU216HW,2013-05-25 02:27:00,
2013-05-24 18:32:00,81.4,40.8,29.90,SE,135,2.0,6.5,24,0.00,,,0.01,WUHU216HW,2013-05-25 02:32:00,
2013-05-24 18:37:00,81.7,40.0,29.90,SSE,158,2.5,11.9,23,0.00,,,0.01,WUHU216HW,2013-05-25 02:37:00,
2013-05-24 18:42:00,81.5,40.9,29.90,East,90,1.8,11.9,24,0.00,,,0.01,WUHU216HW,2013-05-25 02:42:00,
2013-05-24 18:47:00,81.7,40.0,29.90,East,90,4.3,6.3,23,0.00,,,0.01,WUHU216HW,2013-05-25 02:47:00,
2013-05-24 18:52:00,81.5,39.9,29.90,NE,45,2.5,6.3,23,0.00,,,0.01,WUHU216HW,2013-05-25 02:52:00,
2013-05-24 18:57:00,81.4,40.8,29.90,East,90,6.0,6.0,24,0.00,,,0.01,WUHU216HW,2013-05-25 02:57:00,
2013-05-24 19:02:00,81.5,40.9,29.90,SE,135,6.3,6.9,24,0.00,,,0.01,WUHU216HW,2013-05-25 03:02:00,
2013-05-24 19:07:00,80.6,40.1,29.90,SE,135,4.9,8.9,24,0.00,,,0.01,WUHU216HW,2013-05-25 03:07:00,
2013-05-24 19:12:00,79.9,40.6,29.90,NE,45,4.7,8.9,25,0.00,,,0.01,WUHU216HW,2013-05-25 03:12:00,
2013-05-24 19:17:00,79.0,39.8,29.90,ESE,113,6.0,8.5,25,0.00,,,0.01,WUHU216HW,2013-05-25 03:17:00,
2013-05-24 19:22:00,78.1,39.1,29.90,ENE,68,5.4,7.8,25,0.00,,,0.01,WUHU216HW,2013-05-25 03:22:00,
2013-05-24 19:27:00,77.8,39.8,29.90,ESE,113,7.8,7.8,26,0.00,,,0.01,WUHU216HW,2013-05-25 03:27:00,
2013-05-24 19:32:00,77.0,39.3,29.90,ESE,113,4.7,8.1,26,0.00,,,0.01,WUHU216HW,2013-05-25 03:32:00,
2013-05-24 19:37:00,76.5,38.7,29.90,ENE,68,4.7,8.1,26,0.00,,,0.01,WUHU216HW,2013-05-25 03:37:00,
2013-05-24 19:42:00,75.6,39.0,29.90,SSE,158,4.0,7.2,27,0.00,,,0.01,WUHU216HW,2013-05-25 03:42:00,
2013-05-24 19:47:00,75.1,39.5,29.90,SSE,158,4.7,7.2,28,0.00,,,0.01,WUHU216HW,2013-05-25 03:47:00,
2013-05-24 19:52:00,74.9,40.4,29.90,ENE,68,4.0,7.6,29,0.00,,,0.01,WUHU216HW,2013-05-25 03:52:00,
2013-05-24 19:57:00,74.5,40.1,29.90,NE,45,6.3,7.6,29,0.00,,,0.01,WUHU216HW,2013-05-25 03:57:00,
2013-05-24 20:02:00,73.8,39.4,29.90,South,180,5.4,6.9,29,0.00,,,0.01,WUHU216HW,2013-05-25 04:02:00,
2013-05-24 20:07:00,72.7,39.6,29.90,SSE,158,3.6,6.9,30,0.00,,,0.01,WUHU216HW,2013-05-25 04:07:00,
2013-05-24 20:12:00,72.4,39.2,29.90,ESE,113,5.4,6.9,30,0.00,,,0.01,WUHU216HW,2013-05-25 04:12:00,
2013-05-24 20:17:00,72.0,39.0,29.90,SSE,158,4.5,6.3,30,0.00,,,0.01,WUHU216HW,2013-05-25 04:17:00,
2013-05-24 20:22:00,71.3,38.3,29.90,ESE,113,7.6,7.6,30,0.00,,,0.01,WUHU216HW,2013-05-25 04:22:00,
2013-05-24 20:27:00,70.7,38.6,29.90,ESE,113,8.5,8.5,31,0.00,,,0.01,WUHU216HW,2013-05-25 04:27:00,
2013-05-24 20:32:00,70.2,38.2,29.91,ESE,113,6.3,8.5,31,0.00,,,0.01,WUHU216HW,2013-05-25 04:32:00,
2013-05-24 20:37:00,69.8,38.5,29.90,SE,135,3.4,6.3,32,0.00,,,0.01,WUHU216HW,2013-05-25 04:37:00,
2013-05-24 20:42:00,69.3,38.1,29.91,East,90,3.8,5.4,32,0.00,,,0.01,WUHU216HW,2013-05-25 04:42:00,
2013-05-24 20:47:00,68.9,38.5,29.91,ESE,113,5.8,5.8,33,0.00,,,0.01,WUHU216HW,2013-05-25 04:47:00,
2013-05-24 20:52:00,68.6,38.2,29.90,ESE,113,2.5,5.8,33,0.00,,,0.01,WUHU216HW,2013-05-25 04:52:00,
2013-05-24 20:57:00,68.4,38.7,29.91,East,90,2.0,4.5,34,0.00,,,0.01,WUHU216HW,2013-05-25 04:57:00,
2013-05-24 21:02:00,68.4,38.7,29.90,SE,135,0.9,2.7,34,0.00,,,0.01,WUHU216HW,2013-05-25 05:02:00,
2013-05-24 21:07:00,68.2,39.3,29.91,West,270,1.3,2.7,35,0.00,,,0.01,WUHU216HW,2013-05-25 05:07:00,
2013-05-24 21:12:00,67.9,39.0,29.91,North,0,0.0,1.3,35,0.00,,,0.01,WUHU216HW,2013-05-25 05:12:00,
2013-05-24 21:17:00,67.5,38.7,29.91,West,270,1.3,1.3,35,0.00,,,0.01,WUHU216HW,2013-05-25 05:17:00,
2013-05-24 21:22:00,67.3,38.5,29.91,WNW,293,0.9,1.3,35,0.00,,,0.01,WUHU216HW,2013-05-25 05:22:00,
2013-05-24 21:27:00,67.1,38.4,29.91,WNW,293,0.0,0.9,35,0.00,,,0.01,WUHU216HW,2013-05-25 05:27:00,
2013-05-24 21:32:00,66.8,38.1,29.91,West,270,0.0,1.3,35,0.00,,,0.01,WUHU216HW,2013-05-25 05:32:00,
2013-05-24 21:37:00,66.4,39.3,29.91,WNW,293,0.7,2.5,37,0.00,,,0.01,WUHU216HW,2013-05-25 05:37:00,
2013-05-24 21:42:00,66.1,38.9,29.91,WNW,293,0.0,2.5,37,0.00,,,0.01,WUHU216HW,2013-05-25 05:42:00,
2013-05-24 21:47:00,65.9,39.4,29.92,East,90,0.0,0.2,38,0.00,,,0.01,WUHU216HW,2013-05-25 05:47:00,
2013-05-24 21:52:00,65.5,38.4,29.92,NNE,23,0.2,2.0,37,0.00,,,0.01,WUHU216HW,2013-05-25 05:52:00,
2013-05-24 21:57:00,65.2,38.1,29.92,NE,45,0.0,2.0,37,0.00,,,0.01,WUHU216HW,2013-05-25 05:57:00,
2013-05-24 22:02:00,64.6,37.6,29.92,SSE,158,0.4,2.9,37,0.00,,,0.01,WUHU216HW,2013-05-25 06:02:00,
2013-05-24 22:07:00,63.9,37.0,29.91,ESE,113,1.1,2.9,37,0.00,,,0.01,WUHU216HW,2013-05-25 06:07:00,
2013-05-24 22:12:00,63.4,36.5,29.91,East,90,2.0,2.0,37,0.00,,,0.01,WUHU216HW,2013-05-25 06:12:00,
2013-05-24 22:17:00,63.0,36.2,29.91,NE,45,0.0,2.0,37,0.00,,,0.01,WUHU216HW,2013-05-25 06:17:00,
2013-05-24 22:22:00,62.5,35.6,29.91,ESE,113,0.4,1.8,37,0.00,,,0.01,WUHU216HW,2013-05-25 06:22:00,
2013-05-24 22:27:00,62.1,36.1,29.91,ENE,68,0.2,1.8,38,0.00,,,0.01,WUHU216HW,2013-05-25 06:27:00,
2013-05-24 22:32:00,61.6,35.6,29.92,ESE,113,1.3,2.5,38,0.00,,,0.01,WUHU216HW,2013-05-25 06:32:00,
2013-05-24 22:37:00,61.0,35.1,29.92,East,90,0.2,2.5,38,0.00,,,0.01,WUHU216HW,2013-05-25 06:37:00,
2013-05-24 22:42:00,60.5,35.3,29.92,ENE,68,1.1,2.5,39,0.00,,,0.01,WUHU216HW,2013-05-25 06:42:00,
2013-05-24 22:47:00,60.1,35.0,29.92,East,90,2.5,2.5,39,0.00,,,0.01,WUHU216HW,2013-05-25 06:47:00,
2013-05-24 22:52:00,59.6,34.6,29.92,ESE,113,0.7,2.5,39,0.00,,,0.01,WUHU216HW,2013-05-25 06:52:00,
2013-05-24 22:57:00,59.2,34.9,29.92,East,90,0.2,2.0,40,0.00,,,0.01,WUHU216HW,2013-05-25 06:57:00,
2013-05-24 23:02:00,58.7,34.4,29.92,East,90,1.3,1.8,40,0.00,,,0.01,WUHU216HW,2013-05-25 07:02:00,
2013-05-24 23:07:00,58.3,34.1,29.91,East,90,2.0,2.5,40,0.00,,,0.01,WUHU216HW,2013-05-25 07:07:00,
2013-05-24 23:12:00,58.0,33.8,29.92,ENE,68,0.2,3.1,40,0.00,,,0.01,WUHU216HW,2013-05-25 07:12:00,
2013-05-24 23:17:00,57.8,34.2,29.92,ENE,68,0.0,3.1,41,0.00,,,0.01,WUHU216HW,2013-05-25 07:17:00,
2013-05-24 23:22:00,57.4,33.8,29.92,ESE,113,0.7,2.0,41,0.00,,,0.01,WUHU216HW,2013-05-25 07:22:00,
2013-05-24 23:27:00,57.1,33.6,29.92,ENE,68,0.4,2.0,41,0.00,,,0.01,WUHU216HW,2013-05-25 07:27:00,
2013-05-24 23:32:00,56.9,33.4,29.92,North,0,0.0,1.6,41,0.00,,,0.01,WUHU216HW,2013-05-25 07:32:00,
2013-05-24 23:37:00,56.5,33.6,29.92,ESE,113,0.7,3.1,42,0.00,,,0.01,WUHU216HW,2013-05-25 07:37:00,
2013-05-24 23:42:00,56.2,33.3,29.92,ESE,113,0.0,3.1,42,0.00,,,0.01,WUHU216HW,2013-05-25 07:42:00,
2013-05-24 23:47:00,55.8,33.5,29.92,ENE,68,0.4,0.7,43,0.00,,,0.01,WUHU216HW,2013-05-25 07:47:00,
2013-05-24 23:52:00,55.6,33.3,29.92,East,90,0.0,0.4,43,0.00,,,0.01,WUHU216HW,2013-05-25 07:52:00,
2013-05-24 23:57:00,55.4,33.2,29.92,ENE,68,0.0,0.9,43,0.00,,,0.01,WUHU216HW,2013-05-25 07:57:00,